Flag for Canada Weather past 2 weeks in Bathurst, New Brunswick, Canada

Now
12 °F

Passing clouds.


Feels Like: 3 °F
Forecast: 5 / 21 °F
Wind: 6 mph from West

Location: Bathurst Airport

Current Time: Jan 29, 2015 at 12:47:32 AM

Latest Report: Jan 29, 2015 at 12:00 AM


Visibility: 15 mi

Pressure: 30.02 "Hg

Humidity: 67%

Dew point: 3 °F

Location of BathurstLocation

Historic Weather in Bathurst — Graph

°F

Bathurst temperature yesterday

Maximum temperature yesterday: 18 °F (at 4:00 PM)
Minimum temperature yesterday: 9 °F (at 12:00 AM)
Average temperature yesterday: 13 °F

Past Weeks' High & Low Weather Summary

 TemperatureHumidityPressure
High43 °F (Jan 19, 12:00 PM)100% (Jan 19, 3:00 AM)30.52 "Hg (Jan 19, 3:00 AM)
Low-22 °F (Jan 14, 5:00 AM)36% (Jan 26, 4:00 PM)28.86 "Hg (Jan 25, 4:00 AM)
Average12 °F70%29.86 "Hg
* Reported Midnight between Jan 13 and Jan 14 — Midnight between Jan 28 and Jan 29, Bathurst, Weather by CustomWeather, © 2014

Note: Actual official high and low records may vary slightly from our data, if they occured in-between our weather recording intervals... More about our weather records

Advertising

Bathurst weather history for previous 24 hours

 ConditionsComfort  
Time TempWeatherWind HumidityBarometerVisibility
12:00 AM
Jan 29
12 °FPassing clouds.6 mph67%30.02 "Hg15 mi
11:00 PM
Jan 28
12 °FPassing clouds.6 mph67%29.99 "Hg15 mi
10:00 PM12 °FPassing clouds.6 mph73%29.98 "Hg15 mi
9:00 PM14 °FOvercast.8 mph67%29.97 "Hg15 mi
8:00 PM14 °FOvercast.7 mph73%29.94 "Hg15 mi
7:00 PM16 °FOvercast.6 mph73%29.93 "Hg15 mi
6:00 PM16 °FLight snow. Overcast.8 mph79%29.90 "Hg10 mi
5:00 PM18 °FLight snow. Overcast.7 mph73%29.89 "Hg6 mi
4:00 PM18 °FLight snow. Overcast.7 mph73%29.87 "Hg12 mi
3:00 PM16 °FLight snow. Overcast.10 mph67%29.85 "Hg12 mi
2:00 PM16 °FLight snow. Overcast.14 mph67%29.83 "Hg12 mi
1:00 PM14 °FLight snow. Overcast.7 mph73%29.84 "Hg5 mi
12:00 PM14 °FLight snow. Low clouds.9 mph73%29.85 "Hg1 mi
11:00 AM12 °FLight snow. Low clouds.12 mph79%29.86 "Hg1 mi
10:00 AM12 °FSnow flurries. Low clouds.12 mph79%29.84 "Hg2 mi
9:00 AM12 °FSnow showers. Ice fog.12 mph79%29.83 "Hg1 mi
8:00 AM10 °FSnow flurries. Low clouds.9 mph79%29.83 "Hg1 mi
7:00 AM10 °FLight snow. Ice fog.10 mph79%29.82 "Hg1 mi
6:00 AM10 °FLight snow. Ice fog.10 mph79%29.81 "Hg1 mi
5:00 AM10 °FLight snow. Ice fog.9 mph79%29.81 "Hg1 mi
4:00 AM10 °FSnow. Ice fog.7 mph79%29.80 "Hg1 mi
3:00 AM10 °FSnow. Ice fog.10 mph79%29.80 "Hg1 mi
2:00 AM10 °FLight snow. Ice fog.10 mph79%29.81 "Hg1 mi
1:00 AM9 °FLight snow. Ice fog.7 mph85%29.83 "Hg1 mi
12:00 AM9 °FLight snow. Overcast.7 mph78%29.86 "Hg3 mi
Weather by CustomWeather, © 2014

See weather overviewHow to use our weather pages